Location: Allens Landing
(37.8284°N, 89.7284°W)
Time: 07:34:21
(UTC+00:00)

Vanguard 2 Rocket - Pass Details

Date: 10 November 2024
Orbit: 554 x 3296 km, 32.9° (Epoch: 04 December)

Event Time Altitude Azimuth Distance (km) Brightness Sun altitude
Rises 10:06:56 0° 171° (S) 5,333 10.9 -29.3°
Reaches altitude 10° 10:14:15 10° 142° (SE) 5,042 11.1 -27.8°
Maximum altitude 10:18:34 12° 125° (SE) 5,242 11.4 -27.0°
Drops below altitude 10° 10:23:20 10° 109° (ESE) 5,709 11.9 -26.1°
Sets 10:33:29 0° 84° (E) 7,174 12.8 -24.1°
